Fort Wayne, IN

4:11 PM EDT on July 23, 2016 (GMT -0400)
Fort Wayne International

Weather History for KFWA - June, 2014

Change the Weather History Date:

Saturday, June 14, 2014

  Actual Average Record
Temperature  
Mean Temperature 62 °F 70 °F  
Max Temperature 78 °F 81 °F 97 °F (1988)
Min Temperature 45 °F 59 °F 42 °F (1959)
Degree Days  
Heating Degree Days 3 1  
Month to date heating degree days 14 23  
Since 1 June heating degree days 14 23  
Since 1 July heating degree days 6965 6095  
Cooling Degree Days 0 6  
Month to date cooling degree days 54 63  
Year to date cooling degree days 135 120  
Since 1 June cooling degree days 54 63  
Growing Degree Days 12 (Base 50)    
Moisture  
Dew Point 44 °F    
Average Humidity 60    
Maximum Humidity 93    
Minimum Humidity 27    
Precipitation  
Precipitation 0.00 in 0.13 in 1.05 in (1975)
Month to date precipitation 1.80 2.10  
Year to date precipitation 18.34 16.90  
Snow  
Snow 0.00 in 0.00 in 0.00 in (2002)
Month to date snowfall 0.0 0.0  
Since 1 June snowfall 0.0 0.0  
Since 1 July snowfall 74.7 33.5  
Snow Depth 0.00 in    
Sea Level Pressure  
Sea Level Pressure 30.10 in    
Wind  
Wind Speed 4 mph (SSE)    
Max Wind Speed 12 mph    
Max Gust Speed 19 mph    
Visibility 10 miles    
Events      
T = Trace of Precipitation, MM = Missing Value Source: NWS Daily Summary

Daily Weather History Graph

Daily Weather History Graph

Search for Another Location

Airport or City:

Trip Planner

Search our weather history database for the weather conditions in past years. The results will help you decide how hot, cold, wet, or windy it might be!

Date:

Astronomy

Jun. 14, 2014 Rise Set
Actual Time 6:08 AM EDT 9:14 PM EDT
Civil Twilight 5:34 AM EDT 9:47 PM EDT
Nautical Twilight 4:51 AM EDT 10:30 PM EDT
Astronomical Twilight 4:01 AM EDT 11:21 PM EDT
Moon 10:35 PM EDT (6/14) 7:52 AM EDT (6/14)
Length of Visible Light 16h 13m
Length of Day
15h 06m
Full, 97% of the Moon is Illuminated
Jun 14
Full
Jun 19
Last Quarter
Jun 27
New
Jul 5
First Quarter
Jul 12
Full

Hourly Weather History & Observations

Time (EDT) Temp. Windchill Dew Point Humidity Pressure Visibility Wind Dir Wind Speed Gust Speed Precip Events Conditions
12:54 AM 52.0 °F - 43.0 °F 71% 30.07 in 10.0 mi Calm Calm - N/A   Scattered Clouds
1:54 AM 50.0 °F - 44.1 °F 80% 30.08 in 10.0 mi SW 3.5 mph - N/A   Scattered Clouds
2:54 AM 48.9 °F - 43.0 °F 80% 30.07 in 10.0 mi Calm Calm - N/A   Scattered Clouds
3:54 AM 48.0 °F - 43.0 °F 83% 30.08 in 10.0 mi SW 4.6 mph - N/A   Partly Cloudy
4:54 AM 46.0 °F 44.8 °F 42.1 °F 86% 30.10 in 10.0 mi WSW 3.5 mph - N/A   Partly Cloudy
5:54 AM 46.0 °F - 42.1 °F 86% 30.11 in 10.0 mi Calm Calm - N/A   Partly Cloudy
6:54 AM 46.9 °F - 44.1 °F 90% 30.12 in 10.0 mi Calm Calm - N/A   Scattered Clouds
7:54 AM 54.0 °F - 46.9 °F 77% 30.13 in 10.0 mi Calm Calm - N/A   Scattered Clouds
8:54 AM 60.1 °F - 46.9 °F 62% 30.14 in 10.0 mi Calm Calm - N/A   Mostly Cloudy
9:54 AM 64.9 °F - 43.0 °F 45% 30.16 in 10.0 mi Calm Calm - N/A   Mostly Cloudy
10:54 AM 69.1 °F - 44.1 °F 40% 30.16 in 10.0 mi Calm Calm - N/A   Mostly Cloudy
11:54 AM 71.1 °F - 41.0 °F 34% 30.16 in 10.0 mi Variable 4.6 mph - N/A   Mostly Cloudy
12:54 PM 72.0 °F - 42.1 °F 34% 30.16 in 10.0 mi Calm Calm - N/A   Scattered Clouds
1:54 PM 73.9 °F - 42.1 °F 32% 30.13 in 10.0 mi Variable 4.6 mph - N/A   Scattered Clouds
2:54 PM 75.0 °F - 39.0 °F 27% 30.11 in 10.0 mi Calm Calm - N/A   Scattered Clouds
3:54 PM 75.0 °F - 43.0 °F 32% 30.10 in 10.0 mi SSE 4.6 mph - N/A   Scattered Clouds
4:54 PM 75.0 °F - 43.0 °F 32% 30.09 in 10.0 mi East 6.9 mph - N/A   Scattered Clouds
5:54 PM 75.9 °F - 42.1 °F 30% 30.08 in 10.0 mi Variable 5.8 mph - N/A   Scattered Clouds
6:54 PM 75.0 °F - 43.0 °F 32% 30.08 in 10.0 mi SE 10.4 mph 19.6 mph N/A   Scattered Clouds
7:54 PM 73.0 °F - 45.0 °F 37% 30.07 in 10.0 mi SSE 6.9 mph - N/A   Scattered Clouds
8:54 PM 69.1 °F - 46.9 °F 45% 30.06 in 10.0 mi SSE 6.9 mph - N/A   Scattered Clouds
9:54 PM 66.0 °F - 46.9 °F 50% 30.06 in 10.0 mi SSE 5.8 mph - N/A   Partly Cloudy
10:54 PM 64.0 °F - 45.0 °F 50% 30.07 in 10.0 mi ESE 6.9 mph - N/A   Clear
11:54 PM 62.1 °F - 45.0 °F 53% 30.07 in 10.0 mi SE 6.9 mph - N/A   Clear